Temp
18 17 17 17 17 17 17 17 17 16 16 16 16 15 15 15 15 15 15 15 15 15 13 12 11 11 10 10 10 11 10 10 9 10 10 10 10 10 10 11 12 12 13
17 17 16 16 16 16 16 16 16 15 15 15 15 15 15 14 15 15 14 14 14 13 13 11 11 10 10 10 9 9 9 9 9 9 9 9 9 9 9 9 11 11 12
16 16 16 16 16 15 15 15 15 14 14 14 14 14 14 14 14 14 14 13 13 13 12 11 11 10 10 10 9 9 9 9 9 9 9 9 8 8 8 8 9 10 11
16 16 16 16 15 15 15 15 14 14 13 13 13 13 13 13 13 13 12 12 11 11 11 11 10 10 9 9 9 9 9 9 8 8 9 8 8 7 7 7 8 8 10
16 15 15 15 15 14 14 13 13 13 13 12 12 12 12 12 12 11 11 11 11 10 10 10 9 9 8 8 8 8 8 8 8 8 8 7 7 6 6 6 7 8 8
15 15 14 14 13 13 13 13 12 12 12 12 11 11 11 11 11 10 9 9 9 10 9 9 9 8 8 8 7 7 7 7 7 7 7 6 6 6 6 6 6 7 7
14 14 14 14 13 13 12 12 12 11 11 11 11 10 10 11 10 9 9 9 9 9 9 8 8 8 7 7 7 7 7 7 6 6 6 5 5 5 5 5 6 6 7
14 13 13 12 12 12 12 11 11 11 11 10 10 9 6 8 8 8 8 8 8 7 7 7 7 7 7 6 6 6 6 6 5 5 5 5 5 5 5 5 5 6 6
13 13 12 12 12 11 11 10 10 10 10 9 9 8 4 4 5 7 7 7 7 7 6 6 6 6 6 6 6 6 6 5 4 4 4 4 4 4 4 4 5 5 6
13 12 12 11 11 10 10 10 10 9 9 7 8 7 6 6 3 2 6 6 6 6 6 6 6 6 5 5 5 5 4 4 4 3 4 4 4 4 4 4 4 4 6
12 11 11 10 10 9 9 9 8 8 7 7 6 6 6 6 6 4 2 4 5 5 5 5 5 5 5 5 4 4 4 4 3 3 3 3 3 3 3 4 4 4 5
11 10 10 9 8 8 8 8 7 7 6 6 5 5 5 5 5 4 2 2 3 4 4 4 4 4 4 4 4 4 3 3 2 2 2 2 2 2 3 3 3 3 4
10 10 9 8 8 8 8 7 7 6 6 5 5 5 5 5 5 5 4 3 2 3 3 3 3 3 4 3 3 3 2 2 1 1 1 1 1 2 2 2 2 3 3
9 9 8 8 8 7 7 7 7 6 6 5 5 5 5 4 4 4 3 3 -1 1 2 2 3 3 3 2 2 2 1 1 0 0 -0 0 0 1 1 2 2 2 2
9 8 8 7 7 7 7 7 7 6 6 5 5 5 4 3 3 3 3 3 2 -1 0 2 2 2 1 1 1 0 -0 -0 -1 -1 -0 -0 -0 0 1 1 1 1 1
8 7 7 7 7 7 7 6 6 6 6 5 4 3 3 2 3 3 2 2 2 1 -3 0 -0 -0 -0 -1 -1 -1 -1 -1 -1 -1 -1 -0 -0 -0 0 0 0 1 1
7 7 7 6 6 6 6 6 6 5 5 4 3 3 2 2 2 2 2 1 0 -1 -2 -2 -2 -2 -2 -2 -2 -2 -2 -2 -2 -1 -1 -1 -0 -1 -0 0 0 1 1
7 7 6 6 6 6 6 5 5 5 4 4 3 2 2 2 2 1 1 0 -1 -2 -3 -4 -4 -4 -3 -3 -3 -3 -3 -3 -2 -2 -2 -1 -1 -1 -1 -0 -0 -0 1
7 7 6 6 6 6 6 5 5 4 4 3 3 2 2 2 1 0 -0 -1 -2 -3 -3 -4 -5 -4 -4 -4 -4 -3 -3 -3 -3 -3 -3 -2 -2 -2 -2 -1 -1 -0 -0
7 6 6 6 6 6 5 5 4 4 3 3 2 2 2 1 0 -0 -1 -2 -3 -3 -4 -4 -5 -5 -5 -4 -4 -4 -4 -4 -5 -4 -3 -3 -2 -2 -2 -2 -1 0 -0
7 7 6 6 6 6 5 4 4 4 3 3 2 1 1 0 -0 -1 -2 -3 -4 -4 -5 -5 -5 -5 -5 -5 -5 -5 -5 -5 -5 -5 -4 -3 -3 -3 -2 -3 -1 -1 0
6 7 6 6 6 6 5 4 3 3 2 2 1 0 0 -0 -1 -2 -3 -3 -4 -5 -5 -5 -5 -5 -5 -5 -5 -5 -5 -6 -6 -5 -5 -5 -4 -3 -2 -3 -3 -2 -1
7 7 7 6 6 6 5 4 3 2 2 1 -0 -0 -1 -1 -2 -2 -3 -3 -4 -4 -5 -5 -5 -6 -6 -6 -6 -6 -6 -6 -6 -6 -6 -5 -4 -3 -3 -3 -2 -2 -1
6 6 7 6 6 5 4 3 2 2 1 -0 -1 -1 -2 -2 -2 -3 -3 -4 -5 -5 -6 -6 -6 -6 -7 -6 -6 -6 -6 -6 -6 -5 -5 -5 -4 -3 -3 -1 -1 -1 -0
5 6 6 6 5 4 3 2 1 0 -0 -1 -1 -2 -2 -2 -3 -3 -4 -5 -6 -6 -6 -7 -7 -6 -6 -6 -6 -6 -5 -5 -6 -5 -5 -5 -4 -3 -3 -1 -0 -0 -1
4 4 4 5 5 4 3 2 1 -0 -1 -1 -2 -3 -3 -3 -4 -4 -5 -6 -7 -6 -6 -7 -6 -6 -6 -6 -6 -6 -6 -6 -6 -5 -4 -4 -4 -4 -4 -2 -2 -1 -1
Height
864 866 868 868 867 869 868 868 868 868 868 867 867 869 868 867 865 864 863 862 860 858 858 856 855 854 853 853 853 853 853 853 852 852 850 848 845 844 843 841 839 838 836
864 865 866 867 867 868 868 867 867 868 868 867 867 867 867 865 863 863 861 860 859 857 856 855 855 853 852 853 852 852 852 852 852 851 850 848 847 844 842 840 838 836 834
865 865 866 867 867 866 866 866 867 868 867 865 866 866 864 864 862 861 860 859 857 854 853 854 853 853 850 850 852 850 851 851 850 850 848 847 847 845 841 839 837 834 832
864 865 865 866 865 865 866 866 867 867 865 864 864 864 864 862 862 860 859 858 856 855 855 854 853 851 850 848 850 848 849 848 848 848 847 846 845 843 841 838 835 833 830
864 864 865 866 866 867 866 866 865 864 862 862 862 861 861 860 860 858 859 858 857 857 857 855 854 850 848 847 846 847 846 845 845 845 844 845 844 842 839 836 833 831 829
864 865 866 866 865 865 865 864 863 862 861 859 858 858 858 858 858 856 857 857 856 856 856 855 853 850 847 845 845 844 844 844 844 843 843 842 841 839 836 834 831 827 826
864 865 865 865 864 863 862 861 860 859 858 856 854 854 855 855 855 854 854 855 855 855 854 852 850 847 844 843 842 841 841 842 842 843 842 840 838 835 833 830 827 824 821
863 864 864 863 862 861 860 859 857 856 856 854 853 852 853 853 852 854 853 853 852 852 851 851 850 846 844 842 841 839 839 839 839 840 840 839 836 832 829 826 823 821 817
861 862 861 860 859 859 857 856 855 854 853 853 852 854 856 858 854 853 854 854 853 852 852 851 849 847 844 841 839 837 836 835 835 836 835 835 834 830 825 821 819 816 813
857 857 856 856 856 856 856 854 854 852 851 852 853 854 855 856 856 855 854 854 854 853 852 850 847 845 842 840 837 836 835 834 832 832 832 829 827 826 822 817 814 811 807
855 854 854 854 855 855 854 852 852 851 851 853 853 852 852 852 852 852 852 850 849 851 848 847 846 843 840 837 835 834 832 830 828 827 826 825 823 820 817 813 809 806 802
853 853 853 852 854 854 854 853 853 852 852 851 851 851 851 850 850 849 849 846 845 845 844 845 843 840 837 835 832 829 827 825 824 822 821 819 817 815 811 808 805 801 798
850 850 851 851 853 854 853 852 852 851 851 851 851 850 850 848 847 847 846 844 842 841 840 840 839 837 833 831 827 824 823 820 819 817 816 814 811 809 806 802 799 796 792
851 850 850 849 852 853 851 850 850 850 850 849 849 848 847 848 847 843 843 841 841 838 836 834 833 832 829 826 823 820 818 816 814 811 808 806 804 801 798 796 793 790 787
851 853 851 850 851 850 850 848 848 848 846 847 846 846 845 846 845 843 842 839 839 837 832 829 828 828 825 822 819 817 814 810 808 805 801 798 796 793 791 788 787 784 781
848 850 848 850 850 847 846 846 845 844 844 843 844 845 844 847 845 842 840 837 836 834 831 828 826 824 821 818 816 813 810 806 803 799 796 793 790 787 785 783 781 778 775
847 847 848 849 848 846 844 842 842 842 840 840 840 842 841 841 841 840 838 835 833 832 829 825 823 820 817 814 811 809 805 802 798 795 791 788 784 781 779 777 775 773 771
845 846 846 846 846 844 842 840 839 839 837 835 837 838 838 837 836 836 835 831 830 829 827 824 819 816 814 810 807 804 801 798 794 791 788 783 780 776 773 771 768 767 766
844 844 844 843 842 840 838 837 837 837 835 834 833 834 835 833 833 832 831 828 826 825 823 821 816 813 809 806 802 799 797 794 791 787 783 779 776 771 767 763 760 761 760
842 842 842 841 839 837 834 834 835 835 834 831 833 831 830 829 829 829 827 825 822 821 820 817 814 810 807 803 800 796 792 790 786 783 778 775 772 768 763 757 755 755 756
839 838 836 835 834 832 831 830 830 830 829 829 829 828 827 826 825 826 824 822 820 818 816 814 811 807 803 799 797 793 790 786 781 780 775 771 768 763 759 754 752 752 752
833 831 832 830 828 827 827 827 827 827 827 827 826 824 823 823 822 823 821 820 819 816 813 811 807 803 799 796 793 790 787 783 776 773 771 765 765 760 757 752 750 750 749
827 826 825 824 823 822 821 821 823 823 824 824 824 822 822 821 821 820 819 817 815 812 811 808 804 801 797 795 791 786 783 780 777 769 769 762 760 756 755 751 748 745 746
823 821 820 818 816 815 816 817 818 819 819 822 820 819 819 817 818 816 815 813 811 809 806 805 802 797 793 790 787 784 779 775 771 765 765 761 756 752 750 747 744 744 743
818 816 814 813 811 812 813 814 815 815 817 818 816 816 815 815 814 813 812 810 807 804 803 801 797 794 790 786 783 780 775 772 767 761 759 759 753 749 745 740 740 739 738
815 812 811 810 808 808 809 810 812 813 814 812 812 812 812 812 811 810 808 806 803 801 798 796 793 789 786 783 780 778 774 771 767 760 756 756 751 750 744 739 738 737 735
Wind_Speed
6 7 9 8 8 6 6 8 10 12 13 12 11 14 14 15 13 16 15 11 13 16 6 3 6 8 10 10 11 12 14 17 18 19 20 20 19 19 17 14 13 13 14
7 7 6 5 6 8 10 12 12 11 11 12 12 14 15 11 11 13 17 20 15 13 7 2 5 7 8 9 10 12 14 15 17 18 19 19 20 22 21 19 16 16 15
7 9 6 4 7 9 12 12 8 6 6 10 12 13 17 10 13 14 15 23 19 15 8 1 5 7 9 9 9 11 14 15 15 17 20 19 19 21 23 23 21 18 19
12 8 3 6 9 7 8 5 5 7 13 14 12 13 16 18 15 17 19 18 23 16 4 2 9 7 9 10 10 13 13 14 16 20 19 18 21 23 23 25 24 22 20
10 7 5 6 7 5 6 8 10 13 13 10 11 13 16 11 12 15 15 19 19 20 11 5 7 5 8 10 11 12 14 16 20 21 18 20 23 25 25 24 25 24 22
9 10 6 7 6 4 7 11 13 11 10 12 10 10 9 14 9 13 18 19 20 19 18 12 16 14 13 12 10 12 15 18 17 16 18 22 23 24 26 26 25 25 24
9 5 1 4 6 9 10 11 9 12 14 8 7 12 11 5 11 15 15 17 18 18 17 19 16 15 12 10 11 12 15 13 12 14 17 21 25 27 27 27 26 25 26
5 4 4 5 6 8 9 8 11 13 10 6 6 5 3 6 12 17 19 23 15 18 19 21 18 11 10 11 12 13 9 11 15 17 18 18 24 29 30 27 28 27 26
6 2 4 6 8 10 9 10 10 5 5 4 8 6 3 1 5 4 12 14 17 18 19 20 17 11 15 16 15 13 14 11 8 10 16 20 23 27 31 30 29 29 27
2 4 5 7 11 13 13 11 11 9 1 6 4 9 9 9 1 4 10 9 18 19 23 22 16 19 16 13 15 14 12 14 15 13 18 24 28 28 30 30 30 30 27
1 2 5 9 12 11 13 10 3 3 8 8 7 6 8 7 6 2 3 9 14 18 17 17 22 19 16 19 20 18 20 15 18 17 21 24 26 30 29 28 30 31 29
2 2 6 9 10 10 4 4 7 8 9 10 8 5 6 1 3 2 2 4 13 16 16 19 19 19 24 23 22 23 15 16 16 17 21 24 26 28 30 29 30 31 30
1 3 8 7 9 10 4 7 12 10 10 9 7 8 8 8 8 8 6 10 4 19 15 14 19 22 20 27 23 14 17 21 23 22 23 25 28 29 29 30 31 30 29
2 4 4 7 7 8 7 11 10 12 11 8 11 10 8 10 11 7 7 8 4 5 12 19 21 21 22 8 14 20 23 26 29 28 26 28 29 28 28 28 26 28 27
3 6 8 8 9 8 10 11 11 11 9 11 13 9 5 5 4 9 11 9 10 6 6 17 19 15 14 22 25 25 30 33 28 28 31 28 27 27 26 22 23 26 26
4 5 7 9 9 10 9 9 7 5 9 10 3 1 5 13 14 10 11 14 15 15 3 14 19 21 21 25 26 27 26 26 29 28 27 28 28 27 22 20 24 25 25
4 5 7 10 10 10 11 7 8 8 6 2 1 2 2 4 7 12 11 11 12 15 9 18 22 22 22 24 25 22 24 28 25 26 27 27 29 27 27 26 28 30 26
4 5 8 10 12 13 5 10 12 10 2 5 6 6 7 9 11 11 13 12 14 19 13 14 22 23 23 23 25 28 25 23 25 24 25 27 25 24 25 26 28 25 27
6 7 10 12 12 9 10 10 10 1 1 3 4 8 7 8 8 10 13 16 15 16 17 19 21 25 25 26 28 26 26 23 24 23 26 25 23 24 26 29 21 19 19
8 9 12 14 16 11 10 9 8 5 5 3 4 7 8 8 11 14 14 12 13 14 17 19 20 21 22 26 25 23 20 21 25 28 21 18 24 24 27 21 15 18 16
12 15 15 17 16 16 13 13 12 12 8 9 7 8 10 12 13 14 9 11 10 15 18 21 18 20 21 21 17 18 19 22 26 22 25 26 26 28 27 20 15 11 12
18 23 19 17 16 13 14 14 12 11 8 8 7 8 11 11 9 6 6 6 10 14 18 17 18 18 18 17 19 21 22 20 14 16 20 29 26 29 23 26 13 1 5
21 21 21 21 17 14 13 13 11 10 8 6 7 9 11 9 12 10 14 17 19 19 14 18 20 19 21 22 21 24 23 20 19 30 24 24 25 27 18 23 23 17 11
16 16 20 19 17 15 12 12 11 10 7 7 7 9 11 11 13 14 18 17 19 17 16 15 19 26 22 21 22 24 26 27 26 29 20 14 24 25 22 21 20 14 14
17 14 15 16 14 13 12 11 11 9 7 7 9 10 10 11 13 12 14 18 20 19 14 14 16 18 19 20 19 21 18 19 14 22 25 16 14 20 25 18 11 14 15
14 15 15 12 13 13 12 12 11 9 9 8 10 9 10 11 10 12 15 17 18 16 16 19 19 21 20 17 16 16 18 17 16 15 9 7 20 12 8 8 18 14 16
Wind_Direction
125 94 90 86 75 46 30 27 14 6 7 10 22 11 4 355 6 10 359 340 332 323 300 91 76 63 49 36 25 10 3 11 11 9 8 4 356 359 354 337 323 314 312
141 121 105 81 42 16 18 13 12 15 30 15 353 346 344 347 348 339 350 349 352 348 302 94 66 57 48 37 37 32 21 8 357 357 360 358 357 351 352 350 329 317 313
98 107 95 45 38 42 24 20 27 28 0 358 354 344 329 336 335 347 356 341 343 335 300 284 46 49 52 41 24 21 5 360 355 350 346 345 345 346 342 341 339 319 313
101 100 67 33 30 34 26 11 5 343 344 343 336 350 344 337 336 341 354 18 44 29 337 123 31 41 60 42 16 11 358 360 352 342 338 339 336 338 336 331 330 330 314
112 94 55 43 56 27 28 6 0 356 347 337 351 339 340 11 2 359 11 7 15 24 22 352 5 85 41 34 27 9 356 350 340 331 333 333 329 329 331 328 324 321 319
103 92 92 74 41 19 357 354 350 347 343 334 344 350 332 344 355 30 13 12 8 357 6 20 356 346 340 351 8 353 344 334 331 328 323 322 322 326 325 324 322 317 313
106 109 17 319 314 324 335 339 343 338 337 324 328 349 338 330 345 0 6 359 1 0 353 351 352 346 344 344 343 346 334 328 329 321 318 318 320 322 322 319 319 314 309
97 39 29 31 13 355 339 328 335 330 321 5 358 7 352 323 357 348 341 339 359 360 4 2 350 3 1 3 353 345 327 310 312 309 307 313 315 317 317 314 314 314 305
118 75 4 346 343 338 344 343 338 345 317 355 36 65 15 340 331 19 351 5 351 349 346 338 347 355 350 349 349 349 330 305 311 321 312 312 313 313 312 310 310 311 304
297 301 321 330 333 337 334 326 317 313 155 80 85 33 38 8 343 349 358 353 342 336 327 334 340 344 348 354 355 354 351 327 320 316 313 311 311 310 306 303 306 309 302
181 300 320 327 340 346 332 324 3 38 51 42 26 3 332 334 357 17 311 325 337 331 330 332 332 334 331 337 337 333 326 318 324 321 316 312 311 310 306 297 301 305 300
125 340 340 348 347 341 356 17 28 20 2 351 348 352 340 348 342 345 273 310 308 321 322 320 323 323 323 328 321 321 320 324 324 325 318 312 308 306 303 297 296 299 296
156 343 339 351 349 330 337 341 331 341 342 345 341 330 299 304 312 310 315 313 293 314 322 316 316 318 314 320 318 326 322 318 317 316 314 309 305 302 298 294 291 293 294
326 337 329 334 326 306 302 319 315 324 325 306 309 283 285 293 293 306 338 344 323 310 317 318 321 316 315 331 324 321 321 319 316 314 310 308 301 298 294 294 289 294 296
325 310 333 334 312 336 311 302 302 306 307 310 309 271 265 301 6 338 325 333 322 301 302 308 314 332 326 323 319 322 319 317 314 308 311 309 306 303 299 290 291 298 299
276 312 326 315 315 311 320 306 306 317 321 305 273 252 283 304 317 323 327 330 315 313 303 329 327 326 321 319 319 319 320 316 314 315 315 311 309 308 301 286 290 293 302
291 306 314 309 306 304 305 304 328 335 346 310 67 0 334 356 330 328 324 321 329 340 324 319 320 323 328 326 325 324 319 317 314 314 313 312 307 305 302 285 286 284 295
285 292 300 300 294 299 293 319 315 300 298 6 10 339 318 313 314 300 302 318 328 332 336 323 320 326 326 325 321 320 322 319 317 320 316 316 317 312 305 312 281 281 284
255 283 290 288 287 269 297 309 302 204 353 353 337 318 326 310 294 304 314 319 330 326 322 323 315 319 319 321 321 320 322 325 324 319 317 317 318 324 316 307 286 275 282
273 275 299 286 284 260 283 272 276 288 316 321 332 329 323 322 320 316 312 321 323 315 317 311 307 305 307 312 315 317 320 327 326 327 328 323 329 330 327 316 286 286 264
273 289 279 271 287 253 260 265 256 258 281 299 298 308 317 318 320 313 318 319 315 314 311 300 297 299 300 301 305 319 315 319 315 319 318 317 324 326 329 337 299 268 263
283 274 269 263 277 261 254 255 250 255 268 277 286 304 310 311 307 287 296 310 314 317 311 308 302 299 307 311 312 315 312 310 310 320 312 308 316 319 322 332 337 283 260
274 274 264 264 261 255 240 242 244 252 263 275 287 302 303 298 289 291 302 310 313 314 308 308 314 324 319 317 313 308 304 299 294 301 305 298 314 313 319 314 307 283 283
298 295 279 266 254 244 241 230 234 236 249 254 278 296 298 295 280 293 305 311 317 317 317 312 312 316 315 313 311 307 301 295 293 301 306 291 312 309 318 307 298 291 292
293 301 300 280 255 235 220 226 235 235 243 258 287 291 291 286 281 287 299 312 315 319 326 315 322 325 324 317 315 315 307 308 292 295 305 297 308 319 323 318 304 306 296
298 311 317 294 252 245 215 219 230 243 252 283 289 277 281 288 271 287 303 308 305 318 326 328 330 335 336 337 334 329 332 320 309 302 316 305 309 320 316 329 344 334 336